Theta_e
317 317 317 317 319 322 327 329 331 331 333 334 335 334 339 340 340 339 339 341 339 342 344 347 352 354 355 354 354 354 353 353 353 355 353 353 348 346 343 341 340 339 341 343
316 316 316 316 316 317 319 321 324 328 330 331 329 332 334 334 340 340 340 342 344 344 345 347 350 353 356 355 355 354 354 353 352 354 355 352 349 348 346 341 339 340 341 342
317 315 316 316 316 316 316 318 320 325 328 329 330 331 337 339 338 338 339 341 344 346 347 347 346 350 355 357 356 355 355 354 352 354 355 351 345 343 341 340 341 342 342 343
318 316 317 315 317 319 320 319 319 321 323 326 328 330 330 337 334 334 336 337 338 342 346 347 346 345 348 354 357 356 355 357 354 354 355 350 349 345 343 343 343 344 344 343
316 315 315 315 320 321 322 321 326 321 321 324 327 327 329 331 332 330 331 333 335 338 343 347 349 349 348 350 355 357 357 356 357 355 356 355 347 345 346 345 345 346 346 345
313 315 315 319 317 316 319 321 323 322 323 323 324 330 332 328 327 327 329 331 333 336 344 348 350 352 351 349 352 358 357 358 359 357 358 358 352 346 344 345 345 348 349 346
314 314 313 316 316 314 321 321 317 317 318 319 321 322 323 324 326 325 327 327 331 334 343 350 354 358 356 350 351 354 358 359 359 359 359 359 359 356 350 346 355 350 356 355
316 315 314 314 315 316 318 317 315 315 315 316 317 318 320 322 325 324 324 324 329 331 340 347 357 361 355 352 351 354 357 359 359 360 359 360 358 358 358 355 353 356 352 356
314 314 312 314 313 313 313 314 313 313 314 315 317 318 319 320 323 322 321 322 325 327 332 342 350 358 351 351 355 354 357 358 359 359 359 358 359 359 360 359 358 359 360 358
311 311 312 312 312 313 312 312 312 312 314 314 316 319 319 318 321 321 319 320 322 325 328 330 342 352 355 358 357 357 358 358 358 358 358 357 361 361 360 360 360 358 358 357
310 310 307 311 308 309 309 310 311 311 313 313 315 316 318 319 319 319 318 319 322 324 325 327 331 343 353 356 357 357 357 358 359 359 359 359 359 359 360 358 358 358 354 356
308 304 304 305 307 307 308 309 309 311 313 313 314 315 316 319 318 317 318 320 321 324 318 320 320 332 345 353 354 355 356 357 359 359 360 360 358 359 359 359 357 357 358 358
304 304 304 304 305 306 306 307 308 309 311 314 314 316 316 317 315 315 317 320 321 323 316 316 316 315 331 343 347 354 356 358 359 360 360 360 360 360 359 359 358 358 358 358
305 305 304 303 303 303 304 305 307 309 311 313 315 317 316 315 315 317 320 321 323 322 317 318 316 316 316 322 338 344 348 357 357 356 358 358 358 359 359 361 358 355 354 355
306 305 304 302 302 301 302 304 306 309 313 315 315 315 315 315 316 317 318 319 321 321 318 317 317 316 316 317 319 333 334 339 342 351 359 359 360 361 361 358 358 353 349 346
306 305 305 304 301 300 300 301 303 305 307 310 316 315 316 316 316 315 314 315 316 315 315 315 316 316 316 317 319 320 324 323 327 340 347 350 351 348 345 346 335 339 346 345
307 306 305 305 303 301 300 300 301 302 305 306 308 313 314 315 313 313 312 313 311 312 313 313 315 317 317 318 319 321 321 325 324 327 328 332 343 344 345 342 338 335 335 340
307 306 306 305 305 304 303 301 301 301 302 304 305 308 311 310 310 310 310 310 309 310 311 312 312 314 314 317 318 319 323 325 325 326 328 329 331 334 340 343 341 335 334 339
307 307 306 306 306 305 305 303 301 301 301 302 304 305 306 307 307 307 308 307 307 307 308 308 310 310 314 315 316 319 322 323 326 327 327 327 329 330 333 335 337 339 340 341
305 306 305 305 306 306 305 305 304 302 302 302 304 304 305 305 306 306 306 306 306 305 306 306 307 308 311 312 315 317 317 319 321 323 326 329 330 330 331 332 332 333 334 337
305 305 305 304 305 305 304 304 305 305 303 302 302 303 303 303 304 304 304 304 305 305 305 305 306 308 309 310 312 314 316 318 320 321 321 322 330 331 331 332 336 338 338 338
305 305 305 304 304 305 304 304 304 305 304 303 305 304 303 303 302 302 303 303 303 304 305 304 304 305 307 309 311 312 313 314 316 318 319 321 323 325 329 331 332 333 333 334
304 304 304 304 304 304 304 304 304 304 305 305 303 304 303 302 302 302 303 302 302 302 302 301 301 302 303 304 305 306 308 309 311 312 313 314 317 320 321 323 324 325 326 327
304 305 304 304 304 304 304 305 304 305 305 305 304 303 303 303 302 302 302 302 302 302 301 301 301 300 301 301 300 300 301 303 305 305 305 306 308 309 311 312 314 315 315 317
305 304 304 303 303 303 304 304 304 304 304 304 304 304 304 302 302 302 302 302 301 302 301 300 300 300 300 299 299 298 298 299 300 301 302 303 302 302 303 304 305 306 307 308
303 303 303 303 303 302 303 304 303 303 304 304 304 303 304 303 303 303 302 301 301 301 301 301 300 300 300 299 300 299 298 297 297 296 297 299 300 301 301 301 301 301 301 301
304 301 302 303 303 302 301 302 303 303 303 303 303 303 303 303 303 303 303 302 301 301 301 300 300 300 300 300 300 299 299 299 298 297 297 295 294 294 296 298 299 299 300 301
Wind_Speed
19 19 16 14 15 13 16 18 19 18 19 15 10 12 15 7 4 5 4 6 5 15 22 26 28 34 39 38 38 38 41 40 44 46 46 44 45 44 42 39 39 35 33 31
19 19 16 19 17 18 19 20 22 22 19 18 19 10 2 2 4 5 6 6 5 5 7 15 23 29 34 41 40 41 41 44 42 44 44 46 46 45 43 42 39 36 36 34
17 18 20 22 23 20 21 22 21 21 18 17 11 6 14 12 5 7 9 9 9 8 8 11 15 24 31 35 39 39 40 41 40 41 43 45 45 44 44 43 40 39 38 36
11 13 16 14 7 10 14 16 23 22 21 19 13 9 14 8 7 10 13 14 13 11 11 11 14 19 26 31 38 41 42 40 42 42 43 44 43 45 45 44 41 40 39 39
7 13 15 9 9 5 4 12 20 20 23 20 15 16 18 10 9 12 14 17 17 16 17 14 17 18 20 31 35 41 42 47 45 45 44 43 47 48 47 45 43 42 42 41
11 13 15 9 4 4 3 11 15 16 15 16 18 8 9 18 17 16 16 17 19 20 22 17 19 18 23 27 36 42 48 47 44 44 43 44 47 49 48 46 45 40 40 43
14 13 14 7 7 4 5 2 12 13 16 16 11 16 24 22 17 17 18 19 17 17 15 17 18 18 27 31 38 41 36 38 41 42 43 42 40 42 46 47 36 42 36 37
12 16 19 9 7 8 8 9 13 14 11 14 17 18 19 19 16 16 18 21 18 17 16 10 13 18 24 34 32 32 33 36 39 39 39 35 39 38 36 39 40 37 39 35
6 7 2 1 7 14 15 12 13 16 16 15 17 17 16 17 16 14 16 18 17 16 16 12 9 6 12 19 27 27 31 33 35 36 37 35 37 37 34 35 32 32 29 30
12 12 12 10 14 9 7 13 17 18 18 16 15 16 14 15 14 14 14 17 17 16 15 13 9 7 7 14 17 23 28 31 32 34 36 39 32 30 30 29 29 28 28 28
7 17 22 4 14 14 17 18 20 20 18 18 15 15 13 14 14 14 13 13 14 15 16 17 9 6 7 9 16 22 24 26 29 30 32 35 32 30 29 28 28 27 27 23
4 19 16 20 16 18 17 18 20 21 20 19 16 15 12 13 13 13 9 10 11 10 13 15 14 6 6 7 14 15 22 26 27 27 27 30 32 29 29 27 30 28 25 24
7 15 14 17 17 13 17 20 20 20 20 20 16 12 8 12 13 10 9 5 10 12 10 11 13 13 4 7 11 15 12 23 24 26 27 29 29 29 26 31 27 32 32 29
11 16 15 16 17 17 16 17 16 17 22 19 14 9 7 8 7 5 6 4 6 12 6 7 9 11 11 7 4 12 10 16 13 24 23 26 26 25 24 20 23 27 23 18
7 9 9 22 18 19 17 18 15 11 11 11 8 6 4 3 1 2 2 2 6 7 9 6 6 7 6 7 6 3 4 7 7 11 19 21 22 21 20 21 21 23 21 14
7 11 14 15 24 21 22 21 22 18 16 10 11 9 8 8 5 4 4 3 3 6 9 7 6 6 6 5 4 1 4 9 5 1 9 10 12 12 14 11 12 22 19 11
11 12 15 15 16 24 24 22 19 17 15 12 7 8 12 10 2 2 5 5 5 6 8 9 9 6 5 6 4 5 4 5 4 5 3 4 12 8 10 15 15 12 15 11
9 10 10 12 14 13 18 23 19 16 14 10 7 8 10 10 9 8 9 9 9 9 11 9 10 9 9 6 5 6 2 3 2 6 3 3 1 9 9 7 12 25 11 9
10 9 12 11 11 13 12 14 20 19 15 10 13 16 11 13 15 13 12 13 14 16 18 16 10 11 8 6 4 6 6 7 2 2 1 1 8 15 9 13 14 14 17 20
8 9 11 12 11 10 13 11 12 19 20 20 19 20 21 19 19 17 19 21 19 20 20 19 13 11 9 7 4 5 2 1 1 2 2 5 5 5 5 7 10 12 11 13
11 10 11 12 13 11 11 11 11 11 16 18 20 18 18 18 18 20 22 22 23 23 22 23 22 17 14 9 6 3 2 4 5 2 2 6 9 9 10 13 8 8 15 17
11 10 10 11 12 11 9 8 10 10 13 17 14 15 18 19 19 20 21 21 21 23 25 23 23 22 19 17 16 12 7 5 6 4 4 6 6 10 13 13 13 14 15 18
9 10 10 10 10 10 9 8 8 9 11 13 18 15 18 21 23 25 25 22 17 19 23 27 27 30 30 29 26 22 19 16 14 11 8 7 4 1 4 6 9 11 13 13
8 8 7 8 8 8 8 7 7 8 7 11 14 17 17 16 17 19 19 18 18 18 22 23 24 24 24 26 26 28 30 29 25 20 18 15 12 9 7 5 3 3 3 4
8 7 6 8 7 9 9 7 7 9 8 9 10 13 12 16 15 14 13 16 19 18 19 21 24 23 25 25 23 24 25 28 27 27 25 23 22 21 19 16 14 12 9 8
5 5 5 6 8 8 9 7 9 8 10 7 10 9 8 9 10 12 14 14 15 18 18 19 21 19 20 22 24 25 24 22 22 24 23 23 23 22 21 19 19 18 17 17
2 1 4 3 3 6 7 7 7 8 9 7 10 10 11 9 9 9 11 11 13 13 14 16 18 19 19 18 19 20 21 22 21 20 19 21 22 22 21 19 19 18 17 17
Wind_Direction
278 286 278 280 293 287 255 261 271 260 234 239 304 187 97 87 32 357 341 316 258 236 213 202 205 205 206 210 210 209 208 209 212 213 215 214 218 221 226 227 230 232 232 232
270 267 263 261 246 249 260 262 271 274 276 288 2 17 354 178 93 341 326 319 309 289 270 211 207 209 209 209 211 209 209 210 210 212 212 214 218 220 222 227 228 230 230 233
265 259 250 244 242 239 244 246 248 251 252 271 253 289 356 34 15 331 316 319 313 301 277 257 236 218 216 213 211 212 212 212 210 212 212 215 218 218 222 224 226 229 231 233
279 283 258 250 238 266 266 244 241 250 262 271 301 325 319 348 359 327 320 315 311 303 290 269 253 238 221 217 213 213 211 212 210 210 214 217 213 217 221 224 225 229 232 235
259 262 260 246 45 25 351 229 352 248 230 266 4 329 294 295 350 333 322 315 307 301 286 285 268 249 242 213 215 212 213 211 211 209 211 214 218 220 221 224 227 230 234 237
247 265 256 79 79 25 320 242 13 3 3 353 340 291 41 349 339 337 331 322 316 314 315 298 276 260 237 225 211 213 213 213 211 210 211 213 219 221 224 227 230 230 232 237
230 249 265 62 99 278 238 58 355 352 343 334 328 321 315 317 325 330 334 335 332 325 313 294 286 266 244 226 220 216 215 212 211 211 212 214 216 220 224 228 221 231 226 234
237 247 251 60 309 272 21 318 317 317 316 313 299 297 303 306 319 328 337 343 347 342 348 326 312 289 240 229 224 210 211 208 208 210 210 214 214 218 217 221 222 221 231 228
283 241 201 317 294 296 294 295 298 300 291 294 291 291 293 297 310 321 339 348 353 346 343 351 349 21 230 227 205 200 204 206 208 208 209 205 215 214 214 218 215 221 225 228
315 265 290 319 305 319 332 289 286 281 275 284 292 300 292 300 305 315 331 349 351 353 354 4 26 81 107 170 198 203 204 205 207 208 206 202 210 210 208 211 214 216 221 226
270 292 331 258 341 316 309 295 288 282 276 268 282 286 298 299 308 316 324 353 344 353 358 0 360 58 109 167 179 204 209 207 208 208 209 207 202 205 207 210 216 215 216 221
296 307 292 290 301 303 295 290 283 280 277 259 262 274 281 299 308 314 327 354 340 346 358 3 11 23 115 132 185 199 208 205 205 203 206 202 200 202 201 208 215 215 219 216
289 327 319 314 313 311 305 296 288 275 268 262 258 256 268 288 303 319 311 331 352 327 345 353 2 23 70 125 116 137 180 205 206 199 201 198 199 199 199 205 211 215 217 216
356 352 355 349 336 332 329 325 306 285 265 241 244 234 254 284 294 342 328 355 322 312 342 354 349 4 20 44 117 113 111 149 176 202 200 199 198 197 197 191 203 215 216 215
353 9 8 4 355 358 2 4 6 358 356 195 195 200 185 217 281 312 283 240 19 351 325 354 355 8 12 20 40 115 58 94 105 144 169 182 184 187 190 195 197 179 179 186
16 10 9 19 12 6 13 15 17 13 8 22 146 153 140 154 203 285 302 0 318 338 343 349 0 17 28 30 42 350 71 28 24 152 132 136 169 202 228 224 217 211 205 216
1 15 11 21 13 14 17 17 17 16 13 17 33 137 138 149 142 27 27 25 358 346 354 358 360 353 21 17 6 121 123 73 56 77 58 256 149 150 219 220 210 232 240 224
360 5 21 15 16 4 9 16 22 27 24 17 23 85 108 101 88 75 48 33 18 20 19 13 2 6 344 347 355 61 43 68 91 66 188 234 355 256 202 218 276 266 264 247
359 6 11 16 8 18 13 22 24 45 51 62 64 69 86 95 81 73 71 56 33 29 19 8 19 355 329 347 359 43 25 29 11 192 210 89 231 240 199 207 218 212 204 219
11 15 17 18 25 30 24 28 23 36 40 45 65 77 83 86 82 71 66 56 41 36 31 14 16 4 19 345 318 307 333 270 248 289 215 169 236 271 251 234 233 227 238 243
11 21 24 24 32 46 38 31 32 38 36 50 55 66 72 76 78 70 62 55 45 43 39 30 28 28 26 25 46 46 160 235 248 263 247 219 189 191 190 199 193 195 208 216
2 11 10 22 29 34 44 42 36 39 43 48 49 54 56 66 73 71 66 59 53 45 46 42 37 35 37 41 45 40 35 13 1 350 283 266 243 226 233 241 247 252 253 255
357 359 356 3 13 31 30 36 42 46 50 54 55 60 54 49 57 63 63 53 64 64 54 51 47 46 48 48 48 48 49 52 54 49 40 31 38 354 252 250 254 260 266 271
344 346 356 349 344 13 37 40 48 42 65 74 70 61 61 57 54 50 52 57 59 52 47 50 49 50 55 50 49 51 54 53 50 47 50 51 50 46 41 33 7 346 322 309
320 336 341 343 342 2 26 50 51 62 65 67 70 58 60 63 63 64 66 55 51 48 47 46 53 49 50 51 50 52 52 58 61 56 53 54 57 59 58 57 54 51 47 44
310 319 356 357 358 4 13 33 49 54 51 68 71 64 71 62 66 53 52 49 53 49 45 48 49 49 50 46 43 43 48 52 52 57 64 67 65 62 61 62 65 67 69 69
339 287 2 354 46 11 15 35 33 56 61 71 66 61 54 52 58 44 48 48 45 43 39 46 48 46 52 53 50 48 40 31 37 47 52 54 62 66 71 72 70 68 65 65